FW3958 Weather Reports


time (UTC)temp
F
wind
direction
speed
knots
gust
knots
rain 1hr
in
rain 24hr
in
rain mn
in
humidity
%
barometer
mb
20260903043037 57 200 3.5 9.6 0.00 0.17 0.17 97 1009.2
20260903041538 57 180 5.2 10.4 0.00 0.17 0.17 97 1009.1
20260903040038 57 205 5.2 8.7 0.00 0.17 0.17 98 1009.0
20260903034540 57 188 3.5 9.6 0.00 0.17 0.17 97 1008.9
20260903033041 57 184 3.5 8.7 0.00 0.17 0.17 98 1008.8
20260903031534 57 182 1.7 6.1 0.00 0.17 0.17 97 1008.8
20260903030034 58 184 3.5 7.0 0.00 0.17 0.17 96 1008.7
20260903024535 58 174 3.5 7.8 0.00 0.17 0.17 95 1008.7
20260903023032 58 214 3.5 9.6 0.00 0.17 0.17 95 1008.7
20260903021538 59 199 3.5 7.8 0.01 0.17 0.17 95 1008.7
20260903020030 60 178 3.5 7.0 0.01 0.17 0.17 96 1008.5
20260903014540 60 201 1.7 5.2 0.01 0.17 0.17 96 1008.6
20260903013032 61 216 5.2 16.5 0.01 0.17 0.17 92 1008.6
20260903011529 62 209 4.3 9.6 0.00 0.16 0.16 88 1008.4
20260903010030 63 211 4.3 11.3 0.00 0.16 0.16 84 1008.4
20260903004534 64 220 5.2 12.2 0.00 0.16 0.16 84 1008.3
20260903003027 64 224 3.5 11.3 0.00 0.16 0.16 87 1008.2
20260903001524 63 205 6.1 15.6 0.00 0.16 0.16 88 1008.2
20260903000024 63 223 7.0 14.8 0.00 0.16 0.16 87 1008.1
20260902234524 62 172 7.0 11.3 0.00 0.16 0.16 92 1008.1
20260902233022 61 202 2.6 12.2 0.00 0.16 0.16 94 1008.0
20260902231523 62 190 7.0 14.8 0.00 0.16 0.16 89 1007.9
20260902230022 63 213 6.1 17.4 0.00 0.16 0.16 86 1007.7
20260902224521 64 183 7.0 16.5 0.00 0.16 0.16 89 1007.5
20260902223019 63 197 7.8 17.4 0.00 0.16 0.16 91 1007.4
20260902221517 62 184 8.7 15.6 0.00 0.16 0.16 91 1007.2
20260902220013 62 217 7.8 20.0 0.00 0.16 0.16 96 1007.0
20260902214511 61 211 7.0 14.8 0.02 0.16 0.16 96 1007.1
20260902213007 60 200 6.1 12.2 0.02 0.16 0.16 99 1006.9
20260902211504 59 217 8.7 16.5 0.02 0.16 0.16 100 1006.5
20260902210003 59 214 7.8 14.8 0.02 0.16 0.16 100 1006.0
20260902204503 59 177 8.7 19.1 0.00 0.14 0.14 100 1005.3
20260902203100 59 184 7.8 16.5 0.00 0.14 0.14 99 1004.8
20260902201559 59 182 8.7 19.1 0.00 0.14 0.14 97 1004.6
20260902200056 59 154 7.0 13.9 0.00 0.14 0.14 97 1004.5
20260902194555 59 74 0.9 4.3 0.00 0.14 0.14 99 1004.5
20260902193054 58 130 1.7 7.8 0.01 0.14 0.14 98 1004.7
20260902191558 59 138 1.7 6.1 0.01 0.14 0.14 99 1004.8
20260902190055 59 170 2.6 8.7 0.02 0.14 0.14 100 1004.9
20260902184611 59 109 0.9 4.3 0.03 0.14 0.14 100 1004.9
20260902183055 58 120 0.0 2.6 0.02 0.13 0.13 100 1005.0
20260902181548 58 63 0.9 4.3 0.03 0.13 0.13 100 1005.3
20260902180047 58 95 0.9 5.2 0.04 0.12 0.12 100 1005.7
20260902174545 58 99 2.6 12.2 0.04 0.11 0.11 98 1006.2
20260902173040 58 130 3.5 8.7 0.06 0.11 0.11 100 1006.5
20260902171540 58 128 1.7 4.3 0.06 0.10 0.10 100 1006.7
20260902170037 58 129 0.0 1.7 0.04 0.08 0.08 100 1006.9
20260902164536 58 129 0.0 1.7 0.04 0.07 0.07 100 1006.9
20260902163038 58 124 1.7 3.5 0.03 0.05 0.05 100 1007.0
20260902161534 58 127 0.0 1.7 0.02 0.04 0.04 100 1007.1
20260902160032 57 126 0.9 5.2 0.02 0.04 0.04 100 1007.3
20260902154531 57 153 0.0 2.6 0.01 0.03 0.03 100 1007.4
20260902153030 57 118 0.9 5.2 0.01 0.02 0.02 99 1007.5
20260902151529 57 125 2.6 7.0 0.01 0.02 0.02 99 1007.6
20260902150027 58 126 0.0 5.2 0.01 0.02 0.02 99 1007.6
20260902144534 58 161 0.0 3.5 0.01 0.02 0.02 99 1007.8